Theta_e
318 313 316 317 312 312 312 313 313 314 313 312 311 309 308 304 302 300 299 298 297 296 295 295 295 294 293 293 293 293 293 294 294 294 294 294 294 294 298 298 294 296 300 306
318 318 312 311 312 314 314 313 312 312 313 310 309 309 306 302 301 301 299 298 297 296 295 295 294 293 292 292 292 293 293 293 293 293 294 293 293 295 295 296 296 298 298 297
315 316 310 310 312 313 312 311 311 311 309 308 308 307 304 301 300 300 299 298 296 295 295 294 293 293 292 292 292 293 293 293 293 293 294 293 293 294 295 294 295 297 299 299
310 309 311 312 313 311 311 307 308 308 308 306 306 305 306 300 298 299 299 297 295 295 294 294 293 292 292 292 292 292 292 291 291 294 292 293 293 292 294 294 294 295 297 299
313 309 309 310 310 310 311 306 305 306 306 305 305 304 306 301 299 299 297 296 295 294 293 293 293 292 291 292 291 291 290 290 290 289 289 289 291 292 291 292 295 294 295 298
309 308 308 308 310 308 306 306 306 305 304 305 305 305 307 302 302 298 296 295 294 293 293 292 292 292 291 291 291 290 289 289 288 287 286 285 287 290 291 291 292 292 294 296
312 309 307 306 308 308 307 306 305 308 307 308 303 302 304 299 297 296 295 294 293 293 292 292 292 291 291 290 291 289 287 287 286 284 282 281 281 283 286 290 291 294 295 296
312 313 309 306 308 305 306 305 304 306 308 306 301 301 304 298 297 296 295 294 293 292 292 292 292 291 290 290 289 287 286 286 284 283 280 280 279 280 281 284 288 291 293 295
312 311 303 301 302 303 305 304 302 303 295 297 300 303 299 297 296 296 294 293 292 292 292 291 291 290 290 289 288 286 285 284 282 281 279 278 278 278 279 281 283 288 292 294
307 308 304 299 300 299 300 301 301 300 297 300 303 303 302 297 296 294 293 293 292 292 291 291 290 290 289 288 286 284 284 282 281 280 278 277 277 277 278 278 281 285 288 292
305 305 303 300 299 301 297 298 298 298 302 301 298 300 297 296 295 294 293 292 292 292 291 290 289 289 287 287 285 283 282 281 280 278 277 276 275 275 276 277 278 281 284 289
302 303 303 303 297 296 297 299 298 296 298 296 297 298 299 297 294 293 292 292 291 291 290 289 289 288 286 285 283 281 281 280 280 278 276 275 274 274 274 276 278 279 282 284
298 301 306 304 297 295 295 295 296 296 296 296 299 298 296 295 294 292 292 291 291 291 290 289 289 287 285 284 282 280 279 279 279 277 275 274 272 272 273 274 277 279 279 282
299 301 305 314 309 297 295 294 294 295 295 297 297 297 297 297 296 291 291 291 291 290 289 289 288 286 284 282 281 279 278 278 278 276 274 273 271 270 270 272 274 277 278 280
299 302 301 301 298 298 298 296 294 294 295 295 297 296 297 295 292 291 291 291 290 290 289 288 286 284 283 280 279 278 277 278 277 275 274 272 270 270 270 270 272 277 277 278
298 299 301 300 297 296 295 295 294 295 295 294 295 295 296 296 294 291 291 291 290 289 288 286 284 283 281 278 277 277 277 277 276 274 273 271 270 269 269 270 271 275 276 277
299 298 298 301 296 296 296 295 295 295 295 294 294 294 295 293 292 291 291 290 289 288 286 284 283 282 280 278 276 276 276 278 275 272 272 270 269 269 269 269 270 272 275 276
299 298 298 298 297 299 299 293 293 294 295 295 295 295 293 292 291 291 290 289 288 287 285 283 282 281 279 276 276 275 276 275 272 272 271 269 268 268 268 268 269 271 272 274
298 298 297 298 298 299 299 296 290 290 292 293 294 294 293 291 291 290 289 288 288 286 284 282 281 279 278 276 275 275 277 275 271 271 272 269 267 268 269 270 272 273 272 273
297 297 298 296 297 297 293 290 291 291 290 292 292 291 290 291 286 287 289 289 286 284 282 281 280 279 277 276 273 272 274 276 272 272 273 271 270 270 271 273 274 275 275 276
296 296 296 297 297 296 296 290 291 291 295 291 292 291 291 289 289 289 289 286 284 283 281 280 279 277 277 276 273 273 276 273 273 272 275 274 271 270 270 272 274 277 278 279
296 295 295 295 296 296 293 290 292 293 292 291 291 291 291 291 290 289 286 285 284 282 281 280 278 278 276 273 271 272 276 276 276 277 276 274 271 270 271 273 276 278 280 281
296 296 296 295 295 294 291 292 291 292 292 291 291 291 290 289 287 286 285 285 284 282 281 278 278 278 275 272 272 272 275 276 277 279 277 273 269 270 271 273 278 280 283 285
295 295 295 295 295 294 293 293 292 292 292 291 290 290 289 288 287 286 285 284 282 281 279 279 278 276 274 273 271 271 274 276 277 278 276 272 268 269 270 273 276 278 281 284
295 294 296 295 295 294 293 293 293 292 291 291 290 289 289 288 288 286 284 283 280 278 278 277 275 273 273 272 271 271 274 275 277 277 275 273 267 267 268 270 274 274 277 279
295 295 296 296 296 295 295 294 293 292 291 291 290 290 289 288 286 285 283 281 279 278 278 276 274 273 272 271 272 271 273 274 275 276 275 271 266 266 266 268 275 278 275 276
Wind_Speed
3 1 7 5 5 4 5 7 10 10 4 0 7 8 9 19 17 15 10 7 6 10 15 17 16 20 29 34 31 38 38 41 42 41 41 42 44 44 42 44 41 46 36 38
5 7 4 3 3 4 6 9 11 4 4 5 10 15 4 16 16 17 10 4 5 12 16 16 18 23 35 37 38 43 42 44 45 43 43 46 46 45 45 43 43 46 45 41
4 7 2 2 5 7 7 8 4 4 7 10 17 14 9 9 11 12 9 4 7 14 15 14 17 28 40 39 40 42 43 46 48 43 43 54 47 45 43 45 42 43 42 45
8 3 2 5 7 4 5 4 3 8 5 4 7 7 3 13 10 9 11 7 9 13 13 15 21 36 39 38 40 44 43 48 47 39 50 46 43 51 45 46 45 46 42 40
8 2 3 4 4 2 2 2 6 10 11 11 9 6 5 19 13 11 10 7 11 12 14 18 28 33 39 37 41 43 47 46 46 51 49 48 50 46 54 51 44 46 44 40
13 6 3 2 2 2 6 6 9 12 9 4 7 5 5 10 14 10 8 9 10 12 15 26 30 34 38 40 43 43 45 48 49 48 56 52 52 45 41 43 47 47 44 40
0 10 4 1 3 5 3 4 4 5 1 6 6 5 8 6 10 9 8 9 11 15 25 26 31 36 37 43 41 47 52 56 59 58 51 47 47 48 49 41 34 42 40 36
4 4 7 5 2 1 3 0 4 6 3 5 7 7 4 13 18 13 10 11 13 19 19 26 30 37 39 39 44 49 54 60 61 58 53 47 45 45 43 44 42 36 31 36
4 4 4 3 3 2 4 4 1 1 2 3 5 6 5 11 9 9 9 13 13 15 22 26 33 36 33 41 45 48 51 60 57 55 52 47 44 42 41 41 46 45 31 30
4 7 2 3 1 2 2 3 3 1 3 6 5 7 4 8 5 6 5 7 11 19 25 28 33 31 38 39 48 50 52 52 52 57 46 49 43 44 46 42 43 44 40 29
2 4 2 4 7 7 4 3 4 1 4 4 3 4 6 7 7 4 3 9 18 21 24 30 34 33 40 38 45 51 56 57 57 52 51 48 47 42 39 42 41 37 35 34
6 4 5 7 3 3 0 6 9 4 5 4 5 15 5 2 8 8 4 8 14 20 26 35 31 44 42 43 51 56 62 62 60 58 56 47 52 41 45 36 35 35 37 36
8 3 3 5 2 0 5 6 4 4 2 17 4 9 5 10 11 12 6 10 17 24 31 35 35 43 41 44 52 57 58 60 61 62 55 55 47 42 41 44 41 39 35 39
9 5 10 17 8 5 5 8 10 13 12 22 24 30 15 13 13 7 11 14 20 25 31 31 42 47 45 44 52 58 60 58 61 59 55 56 51 46 43 40 38 40 32 35
5 8 12 21 16 9 13 9 13 18 23 18 33 22 21 9 4 2 8 14 20 25 27 30 42 46 46 48 55 58 58 60 62 61 58 54 51 47 44 45 38 33 31 34
4 4 7 15 7 10 17 16 16 22 25 24 28 33 18 20 13 5 9 14 21 24 25 35 42 46 47 49 56 59 60 61 61 59 59 53 50 50 46 44 39 31 31 38
8 6 4 6 4 8 14 22 27 27 20 23 23 29 12 6 2 4 9 17 19 22 31 37 41 46 50 52 54 58 60 61 59 56 59 52 50 47 47 44 42 38 39 34
8 6 5 1 4 6 3 3 3 11 19 19 24 23 5 2 3 6 13 13 13 26 33 36 41 45 47 49 52 55 57 58 55 55 57 50 51 50 48 45 42 41 37 36
7 7 4 4 7 11 16 5 7 8 7 12 18 14 6 6 3 9 5 8 20 26 29 33 36 40 45 48 50 54 57 58 53 54 61 54 50 47 45 41 39 37 37 34
8 8 6 5 5 8 2 3 13 6 10 15 14 8 6 7 1 4 7 16 21 24 28 31 35 38 42 46 49 52 55 59 58 61 64 51 43 41 42 40 38 35 32 31
7 5 16 12 8 9 7 12 12 5 4 5 15 12 11 4 10 7 15 16 18 23 28 31 33 37 41 45 49 52 54 56 59 60 60 49 45 45 44 43 40 35 29 24
13 12 6 8 7 16 19 11 9 5 15 20 16 16 17 19 16 14 13 16 20 25 28 31 36 40 41 42 47 51 53 56 58 60 58 50 48 45 40 38 32 31 26 24
7 10 8 14 8 1 35 7 26 14 20 23 19 17 15 15 12 11 13 17 22 26 29 32 36 40 41 42 44 49 52 55 57 59 58 51 49 44 41 35 28 26 23 21
10 15 4 5 9 12 20 19 11 21 15 15 12 11 14 11 10 11 12 15 20 23 28 32 35 38 41 42 43 44 49 52 54 57 56 51 49 48 43 35 27 22 21 27
7 15 13 6 9 4 17 26 28 21 19 15 13 12 11 11 11 12 12 15 17 20 25 28 31 35 38 41 42 44 47 49 52 54 54 50 47 46 46 39 32 24 17 21
9 10 10 8 13 15 11 26 24 23 23 20 16 14 14 14 13 12 12 14 15 20 24 27 29 32 36 38 41 43 44 45 48 50 51 48 46 46 44 44 40 22 21 17
Wind_Direction
312 308 282 47 54 326 272 263 272 279 112 175 244 262 260 152 149 140 122 99 58 29 7 2 357 355 345 347 335 336 328 327 323 317 315 317 306 304 299 304 299 302 296 290
312 270 68 21 287 260 276 271 274 299 139 350 270 262 158 164 169 156 132 113 44 13 5 2 355 349 347 345 334 334 329 325 321 315 308 313 307 297 297 298 299 299 299 298
290 278 64 279 294 282 283 285 319 290 311 273 275 271 151 157 149 153 159 152 38 14 0 354 348 351 347 341 332 330 326 323 320 315 305 308 303 297 293 295 293 294 296 302
267 76 36 307 275 283 280 50 311 280 308 243 51 286 84 167 174 181 163 88 27 3 359 346 349 350 340 332 328 327 329 322 321 315 308 311 303 298 295 291 291 291 293 294
248 242 277 272 271 88 252 331 258 261 253 282 256 255 284 158 190 182 143 79 21 1 352 347 357 341 332 330 328 327 325 325 315 310 308 305 303 294 299 293 290 289 289 290
248 128 215 278 104 183 324 287 272 252 258 271 256 227 226 179 198 143 118 51 21 358 350 356 345 328 330 328 328 329 327 322 318 311 308 301 293 295 298 295 292 287 285 288
249 211 112 160 261 156 226 289 325 331 9 228 74 331 241 139 99 120 98 44 15 1 1 345 332 329 329 330 331 324 328 327 325 322 318 313 306 294 288 292 298 293 280 285
262 296 167 154 208 72 202 160 160 259 261 268 23 253 247 123 127 129 67 35 13 3 346 335 328 328 327 330 324 325 328 330 329 325 320 316 311 308 296 286 285 294 302 284
310 243 94 30 46 127 153 201 13 355 59 359 231 259 71 140 149 94 38 18 7 348 338 333 328 326 326 324 322 324 324 328 328 324 321 316 312 310 305 298 285 280 292 299
348 300 52 98 104 152 251 159 80 133 294 266 249 250 237 186 155 76 20 7 351 345 338 330 325 325 324 321 322 325 324 325 325 325 319 317 310 305 306 303 290 276 282 296
33 207 171 127 202 181 168 226 222 336 194 221 295 256 148 156 156 112 4 1 353 335 331 326 326 320 325 319 323 324 327 327 328 327 318 320 308 312 305 301 303 283 277 278
194 240 246 250 71 49 296 223 182 164 243 256 252 262 328 97 137 112 50 352 332 331 329 326 320 322 325 324 327 329 331 328 331 325 323 317 316 303 307 305 304 296 275 276
176 221 315 279 77 83 235 204 241 254 176 237 231 252 129 152 178 71 35 341 339 334 327 326 317 324 323 324 327 329 328 327 327 327 320 318 315 306 300 294 288 290 288 269
166 209 207 256 270 148 221 219 212 220 237 254 237 258 255 271 293 31 1 342 336 329 324 319 317 324 325 323 327 330 329 326 325 326 319 317 316 311 306 302 295 289 286 279
171 229 230 255 272 278 266 252 219 219 234 232 261 246 265 257 206 144 343 332 328 326 322 316 320 324 324 325 330 331 328 330 328 327 326 319 314 311 305 304 302 288 285 282
180 240 246 266 278 274 267 248 248 245 242 247 257 270 258 281 280 341 328 336 324 319 314 318 324 325 325 328 333 331 332 330 331 330 326 323 313 311 308 306 304 288 282 284
185 200 169 247 61 336 282 234 233 244 240 238 247 251 283 245 248 1 336 324 314 308 317 323 324 326 329 332 333 332 331 334 333 328 329 321 317 310 306 302 298 293 279 276
182 175 168 239 109 247 242 185 221 244 251 245 252 257 234 210 108 311 318 300 306 321 322 324 325 326 328 332 335 332 335 335 331 330 329 321 318 313 307 302 297 296 289 276
180 171 175 212 200 298 296 203 171 182 252 227 235 245 213 126 43 299 268 294 322 318 318 320 322 325 329 336 336 336 338 338 333 332 332 330 321 319 316 313 310 304 292 277
178 195 202 165 219 235 151 112 105 95 270 217 212 219 160 112 136 246 270 298 310 317 318 321 326 330 337 339 340 338 340 342 338 338 338 334 334 330 326 321 316 311 299 282
184 201 218 226 237 273 205 153 134 147 255 125 190 163 159 186 225 238 283 301 312 320 325 329 331 337 343 343 342 342 343 343 341 342 340 340 343 340 329 321 317 316 307 283
177 172 194 204 220 252 150 141 189 185 152 152 160 178 204 233 235 266 287 305 319 327 332 335 338 341 347 350 345 343 345 345 346 346 343 347 349 337 336 329 326 319 305 287
201 193 178 198 212 115 168 178 199 175 168 176 187 198 218 213 235 259 287 312 326 330 337 340 341 341 349 352 350 346 346 348 346 350 345 351 346 346 343 339 336 338 319 296
227 207 216 153 219 227 203 204 191 209 199 195 206 214 210 220 243 266 293 314 322 332 340 342 342 345 348 351 352 351 350 350 349 353 348 353 348 349 348 348 342 337 347 317
183 172 194 249 270 253 221 221 226 222 216 217 231 232 227 245 259 270 293 308 323 336 340 343 345 346 349 351 354 354 354 354 354 356 351 354 352 349 348 350 349 342 331 347
183 173 184 211 199 207 215 224 228 215 216 227 226 224 234 243 250 265 288 306 328 338 342 345 348 348 351 352 355 356 357 359 360 359 355 357 356 352 351 352 351 4 358 3